Flag for U.S.A. Weather past 2 weeks in Winder, Georgia, U.S.A.

Now
50 °F

Cool.


Feels Like: 48 °F
Forecast: 48 / 69 °F
Wind: 5 mph from Northeast

Location: Winder-Barrow Airport


UV Index: 5 (Moderate)

Visibility: 10 mi


Pressure: 30.23 "Hg

Humidity: 62%

Dew point: 37 °F

Location of WinderLocation

Historic Weather in Winder

°F

Winder temperature yesterday

Maximum temperature yesterday: 59 °F (at 12:55 PM)
Minimum temperature yesterday: 50 °F (at 12:15 AM)
Average temperature yesterday: 54 °F

Past Weeks' High & Low Weather Summary

 TemperatureHumidityPressure
High81 °F (Apr 12, 3:55 PM)83% (Apr 7, 9:55 PM)30.49 "Hg (Apr 7, 9:55 PM)
Low32 °F (Apr 16, 4:55 AM)3% (Apr 10, 5:15 PM)29.71 "Hg (Apr 7, 5:15 PM)
Average57 °F47%30.11 "Hg
* Reported Apr 5 6:15 AM — Apr 20 6:35 AM, Winder, Weather by CustomWeather, © 2014

Note: Actual official high and low records may vary slightly from our data, if they occured in-between our weather recording intervals... More about our weather records

Advertising

Historic Weather Conditions — Data for Previous 24 hours

 ConditionsComfort  
Time TempWeatherWind HumidityBarometerVisibility
6:35 AM
Apr 20
50 °FCool.5 mph62%30.23 "Hg10 mi
6:15 AM50 °FCool.3 mph62%30.23 "Hg10 mi
5:55 AM50 °FCool.3 mph62%30.21 "Hg10 mi
5:15 AM50 °FCool.5 mph62%30.21 "Hg10 mi
4:55 AM52 °FCool.5 mph54%30.20 "Hg10 mi
4:35 AM52 °FCool.5 mph54%30.21 "Hg10 mi
4:15 AM54 °FCool.6 mph51%30.20 "Hg10 mi
3:55 AM54 °FCool.10 mph51%30.20 "Hg10 mi
3:35 AM54 °FCool.9 mph51%30.20 "Hg10 mi
3:15 AM54 °FCool.9 mph51%30.21 "Hg10 mi
2:55 AM54 °FCool.7 mph51%30.21 "Hg10 mi
2:35 AM54 °FCool.7 mph51%30.22 "Hg10 mi
2:15 AM54 °FCool.7 mph51%30.22 "Hg10 mi
1:55 AM54 °FCool.6 mph51%30.22 "Hg10 mi
1:15 AM54 °FCool.7 mph51%30.23 "Hg10 mi
12:55 AM54 °FCool.8 mph51%30.23 "Hg10 mi
12:35 AM54 °FCool.7 mph51%30.23 "Hg10 mi
12:15 AM54 °FCool.7 mph51%30.23 "Hg10 mi
11:55 PM
Apr 19
54 °FCool.7 mph51%30.23 "Hg10 mi
11:35 PM54 °FCool.7 mph51%30.23 "Hg10 mi
11:15 PM54 °FCool.8 mph51%30.23 "Hg10 mi
10:55 PM54 °FCool.9 mph51%30.23 "Hg10 mi
10:35 PM54 °FCool.8 mph51%30.23 "Hg10 mi
10:15 PM54 °FCool.10 mph51%30.23 "Hg10 mi
9:55 PM54 °FCool.15 mph47%30.23 "Hg10 mi
9:35 PM55 °FRefreshingly cool.10 mph41%30.22 "Hg10 mi
9:15 PM55 °FRefreshingly cool.10 mph38%30.21 "Hg10 mi
8:55 PM55 °FRefreshingly cool.9 mph38%30.20 "Hg10 mi
8:35 PM55 °FRefreshingly cool.7 mph41%30.20 "HgN/A
8:15 PM55 °FRefreshingly cool.7 mph44%30.19 "Hg10 mi
7:55 PM55 °FRefreshingly cool.7 mph47%30.18 "Hg10 mi
7:15 PM55 °FRefreshingly cool.12 mph59%30.17 "Hg10 mi
6:55 PM55 °FCool.16 mph63%30.17 "Hg10 mi
6:35 PM55 °FCool.9 mph67%30.17 "Hg10 mi
6:15 PM57 °FCool.13 mph63%30.16 "Hg10 mi
5:55 PM57 °FCool.9 mph67%30.15 "Hg10 mi
5:15 PM55 °FCool.9 mph77%30.14 "Hg5 mi
4:55 PM55 °FCool.10 mph77%30.14 "Hg3 mi
4:35 PM55 °FCool.13 mph77%30.13 "Hg3 mi
4:15 PM55 °FCool.13 mph77%30.13 "Hg2 mi
3:55 PM55 °FCool.9 mph77%30.13 "Hg2 mi
3:15 PM57 °FCool.7 mph77%30.13 "Hg2 mi
2:55 PM57 °FCool.9 mph77%30.13 "Hg2 mi
2:35 PM55 °FCool.12 mph77%30.13 "Hg4 mi
2:15 PM57 °FCool.12 mph72%30.12 "Hg4 mi
1:55 PM59 °FCool.10 mph63%30.12 "Hg5 mi
1:15 PM59 °FCool.13 mph63%30.13 "Hg10 mi
12:55 PM59 °FCool.9 mph63%30.12 "Hg10 mi
12:35 PM57 °FCool.9 mph72%30.13 "Hg10 mi
12:15 PM55 °FCool.9 mph77%30.13 "Hg4 mi
11:55 AM55 °FCool.13 mph77%30.13 "Hg3 mi
11:35 AM55 °FCool.13 mph72%30.14 "Hg3 mi
11:15 AM54 °FCool.8 mph77%30.13 "Hg3 mi
10:55 AM54 °FCool.12 mph77%30.13 "Hg2 mi
10:15 AM54 °FCool.10 mph77%30.12 "Hg2 mi
9:55 AM54 °FCool.7 mph77%30.12 "Hg4 mi
9:35 AM54 °FCool.8 mph72%30.11 "Hg3 mi
9:15 AM54 °FCool.12 mph72%30.11 "Hg3 mi
8:55 AM52 °FCool.12 mph77%30.11 "Hg3 mi
8:35 AM52 °FCool.12 mph77%30.11 "Hg3 mi
8:15 AM52 °FCool.7 mph77%30.11 "Hg3 mi
7:55 AM52 °FCool.10 mph77%30.11 "Hg3 mi
7:35 AM52 °FCool.8 mph77%30.11 "Hg3 mi
7:15 AM52 °FCool.7 mph77%30.11 "Hg3 mi
Weather by CustomWeather, © 2014

See weather overview